Location: Newark
(61.5000°N, 23.7667°E)
Time: 19:16:04
(UTC+00:00)

ISS - Pass Details

Date: 23 September 2019
Orbit: 411 x 421 km, 51.6° (Epoch: 16 October)

Event Time Altitude Azimuth Distance (km) Brightness Sun altitude
Rises 18:37:59 0° 226° (SW) 2,342 0.2 -16.1°
Reaches altitude 10° 18:40:49 10° 199° (SSW) 1,481 -1.1 -16.4°
Enters shadow 18:41:10 11° 194° (SSW) 1,413 -1.3 -16.4°
